Location: New York
(40.7127°N, 74.0060°W)
Time: 18:05:44
(UTC-04:00)

UNISAT 6 - Pass Details

Date: 27 April 2024
Orbit: 593 x 667 km, 97.7° (Epoch: 27 May)

Event Time Altitude Azimuth Distance (km) Brightness Sun altitude
Rises 04:39:04 0° 159° (SSE) 2,914 ? -14.4°
Reaches altitude 10° 04:41:17 10° 157° (SSE) 1,999 ? -14.1°
Maximum altitude 04:45:35 66° 76° (ENE) 677 ? -13.4°
Drops below altitude 10° 04:49:50 10° 354° (N) 1,970 ? -12.7°
Sets 04:52:01 0° 351° (N) 2,869 ? -12.3°
